Theta_e
305 304 304 304 304 305 304 304 304 304 305 307 308 308 308 309 310 311 310 309 310 311 310 310 311 310 307 305 301 296 294 295 297 299 300 300 301 301 300 297 294 291 290 290 290 289 289 288 288 287 287 287 287 286 286 286 285 285 285 285 284 284 284 284 285 286 285 285 284 283 283 283 282 282 281 281 281 281 281 281 281 280 280 280 280
305 303 303 303 303 303 303 302 303 304 305 306 306 306 307 308 309 308 307 307 308 310 309 308 309 308 305 302 298 294 293 293 295 298 299 299 299 297 295 292 290 290 290 290 289 289 288 288 288 287 287 287 286 286 286 286 286 285 285 284 284 284 284 283 284 285 285 285 284 283 283 282 282 282 282 281 281 281 281 281 281 281 280 280 280
304 303 303 302 302 302 301 301 303 303 304 304 304 305 306 307 308 306 306 306 307 308 308 306 307 307 304 299 295 293 292 292 293 295 296 296 294 292 291 290 290 290 290 290 289 288 288 287 287 287 287 287 287 286 286 286 286 285 285 285 284 284 283 283 283 284 284 284 283 283 282 282 281 281 282 282 282 281 281 281 281 281 281 281 280
304 303 302 302 302 301 301 301 302 302 302 302 303 304 305 307 307 306 305 304 304 306 306 305 305 305 301 297 294 291 290 290 291 292 292 291 291 290 290 290 290 290 290 290 289 288 288 288 287 287 287 287 287 287 287 286 286 286 285 285 285 284 283 283 282 282 283 283 283 282 282 281 281 281 282 282 282 282 281 282 282 282 281 281 281
303 302 302 302 301 301 301 302 302 302 302 302 302 302 304 305 306 305 304 303 303 305 305 303 302 302 299 296 293 291 290 289 290 289 289 289 290 290 290 290 290 290 290 289 289 289 288 288 288 287 287 287 287 287 287 287 286 286 285 285 285 284 284 283 282 281 281 282 282 282 281 281 281 281 282 282 281 281 281 281 282 281 281 281 281
302 302 302 301 300 300 301 301 302 302 301 301 301 302 303 304 304 304 303 303 304 305 303 301 300 300 299 296 293 291 290 289 289 289 289 289 290 290 290 290 290 290 289 289 289 289 288 288 288 288 287 288 288 288 288 287 286 286 286 286 286 285 284 283 282 281 281 281 281 281 281 281 281 281 282 281 281 280 280 281 281 280 280 280 280
301 301 301 300 300 300 300 301 302 301 301 301 301 301 302 303 303 303 303 304 304 303 301 299 299 299 298 295 292 291 289 289 289 289 289 289 289 290 290 290 290 289 289 288 288 288 288 288 288 288 288 289 289 289 288 287 287 287 287 286 286 285 284 283 282 281 281 281 281 281 281 281 281 281 281 281 280 280 280 280 280 280 280 279 279
300 300 300 300 299 299 299 300 301 301 301 301 301 301 301 302 302 302 302 302 301 300 299 298 298 298 296 293 291 289 288 288 288 288 288 289 289 289 289 289 289 289 288 288 288 288 288 287 287 288 288 289 289 288 288 288 288 288 287 287 286 285 284 283 282 281 281 281 281 281 281 281 281 281 281 281 280 280 281 280 280 280 280 279 279
299 299 299 299 299 299 299 299 299 300 300 299 299 299 300 300 300 300 300 299 298 297 296 296 295 294 293 291 289 287 287 287 288 288 288 289 289 289 289 289 289 288 288 288 287 287 287 287 287 288 288 288 288 288 288 288 288 288 288 287 286 285 285 283 282 281 281 281 281 281 281 281 281 281 281 281 281 281 281 280 280 280 280 279 279
298 298 298 298 298 298 298 297 297 297 297 298 298 298 298 298 297 297 296 296 295 294 293 292 291 291 290 288 286 286 286 287 287 288 288 289 289 289 288 289 289 289 288 288 287 287 287 287 288 288 287 287 287 288 288 288 288 288 288 287 286 285 285 284 283 282 282 281 281 282 281 281 282 281 281 281 281 281 281 280 280 280 280 280 280
297 298 298 297 297 297 297 296 296 296 296 296 296 296 296 296 296 295 294 292 292 291 290 289 289 288 287 286 285 286 286 286 287 287 288 288 288 288 288 289 288 288 288 287 287 287 287 288 288 287 287 288 288 288 287 287 288 288 287 286 286 286 285 284 283 283 282 282 281 281 281 281 282 282 282 281 281 281 280 280 280 280 280 280 280
297 297 297 297 296 296 296 295 295 294 295 295 294 294 294 295 293 292 291 290 289 289 288 287 287 286 286 285 285 286 286 286 286 287 287 287 288 288 288 288 288 288 287 287 287 288 288 287 287 287 288 289 288 287 287 287 287 287 287 286 286 286 285 284 283 283 283 282 282 281 281 281 282 282 282 281 281 281 280 280 279 279 280 280 280
296 296 296 296 296 296 295 294 294 293 293 293 292 291 292 293 292 291 290 289 288 287 286 286 285 285 285 285 285 285 285 286 286 286 286 287 287 287 287 288 288 288 287 287 288 288 287 287 287 288 289 289 288 287 286 287 287 287 287 286 286 286 285 285 284 284 283 282 281 281 282 281 281 282 282 281 281 281 280 280 280 280 280 279 280
295 295 295 295 295 295 294 294 293 292 292 292 291 290 291 293 293 291 289 288 286 285 285 285 284 284 284 284 284 284 285 285 285 285 286 286 286 286 287 287 287 287 288 288 288 288 287 287 288 289 289 289 288 287 287 287 287 286 286 286 285 285 285 285 285 284 284 283 281 282 284 283 282 282 282 281 281 281 280 280 280 280 280 279 279
294 294 294 294 294 294 293 293 292 292 291 290 290 289 290 291 290 289 287 287 286 285 285 284 283 283 283 283 283 284 284 284 285 285 285 285 285 285 286 287 287 287 287 287 287 287 287 288 288 289 289 289 288 288 287 287 286 286 285 285 285 284 284 284 284 284 284 283 283 283 284 284 282 282 282 281 280 280 280 279 279 279 278 278 278
293 293 293 293 293 293 293 292 291 291 290 289 289 289 288 288 288 287 286 286 285 285 284 283 283 283 283 283 283 283 284 284 284 284 284 284 285 285 285 286 286 287 287 287 287 287 288 288 288 289 289 289 288 288 287 286 285 284 283 284 284 284 284 284 283 283 283 282 282 282 283 283 282 282 281 281 280 280 279 278 278 278 277 277 277
293 293 292 292 292 292 292 291 290 290 289 289 288 288 288 287 286 286 285 284 284 284 283 283 283 283 282 282 282 283 283 283 283 284 284 284 284 285 285 286 286 287 287 288 288 288 287 288 289 289 289 288 288 287 286 284 283 282 282 282 282 282 283 283 283 282 282 282 281 281 281 281 281 281 281 281 281 281 280 278 278 277 277 276 277
292 292 292 292 291 291 291 291 290 289 289 289 288 288 287 287 286 285 285 284 284 283 283 282 282 282 282 282 283 283 283 283 283 283 283 284 284 284 285 286 287 289 289 288 287 287 287 288 288 288 288 288 287 287 285 282 281 281 281 281 281 281 282 282 282 282 282 281 281 281 280 280 280 280 280 280 280 280 280 279 279 278 277 276 276
291 291 291 291 291 291 291 290 290 290 289 288 288 287 286 286 285 285 284 284 284 283 283 282 282 282 282 282 282 283 283 283 283 283 283 283 284 285 287 289 290 290 289 287 287 287 287 287 287 287 287 287 286 285 284 282 281 281 281 280 280 280 281 281 280 280 280 280 279 279 279 279 279 279 279 280 279 279 279 279 279 279 278 277 276
291 291 291 291 291 291 290 290 290 289 289 288 287 287 286 285 285 284 284 284 284 283 283 282 282 282 282 282 282 282 282 283 283 283 283 284 286 288 290 291 291 290 288 287 287 287 286 286 286 286 286 285 284 284 283 282 282 281 281 280 279 280 281 281 280 280 279 279 279 279 279 279 279 279 279 280 280 279 279 279 278 278 278 277 277
291 291 291 291 290 290 290 289 289 289 289 288 287 286 286 285 285 284 284 284 283 283 283 282 282 282 282 282 282 282 282 282 282 283 284 286 289 291 292 291 291 290 288 287 286 285 285 285 286 285 284 283 283 282 282 282 281 281 281 280 280 281 281 280 280 280 280 280 280 280 280 280 279 279 279 279 279 278 278 278 278 277 277 277 277
291 290 290 290 290 289 289 289 289 288 288 287 287 286 285 285 285 284 284 284 283 283 282 282 282 282 282 282 282 282 282 282 283 284 286 288 290 291 291 291 290 289 287 285 285 285 285 284 284 283 282 282 282 281 281 281 281 281 281 281 281 281 281 281 281 281 281 281 281 280 280 279 279 279 279 278 278 277 277 277 277 276 276 276 276
290 290 289 289 288 288 288 288 288 288 288 287 287 286 285 285 284 284 284 284 283 282 282 282 281 281 281 281 281 282 282 282 283 285 288 289 290 291 290 290 288 287 285 284 284 284 283 283 282 282 282 281 281 281 281 281 281 281 281 281 282 282 282 282 282 282 282 281 281 281 280 280 279 278 278 278 277 277 276 276 276 275 275 275 275
289 288 288 288 287 287 288 288 288 288 287 287 286 286 285 284 284 284 284 283 282 282 281 281 281 281 281 281 281 281 282 284 285 288 289 290 290 289 288 287 286 285 284 283 283 283 282 282 281 281 281 280 280 280 280 281 281 281 281 281 281 281 281 281 281 281 281 281 280 280 280 279 279 278 278 278 277 276 275 275 275 275 274 274 274
288 287 287 287 287 287 287 287 287 287 287 286 286 285 284 284 283 283 283 282 282 281 281 281 281 281 282 282 283 284 286 287 287 288 288 287 287 286 285 284 283 283 283 282 282 282 281 281 281 280 280 280 280 280 279 279 279 279 279 279 279 279 279 279 280 280 280 280 280 279 279 279 278 278 277 277 277 276 275 275 274 274 274 273 273
287 287 286 286 286 286 286 286 286 286 285 285 285 284 284 283 282 282 282 282 282 282 282 282 282 283 284 285 286 287 286 286 285 285 284 284 283 283 282 281 281 280 281 281 281 281 280 280 280 279 279 279 278 278 278 277 277 277 277 277 277 277 278 278 278 279 279 279 278 278 278 278 277 277 276 276 275 275 274 274 273 273 272 272 272
286 286 285 285 285 285 285 285 284 285 285 284 284 284 284 283 283 282 282 283 283 283 284 284 284 284 284 284 285 284 284 283 282 282 282 282 281 281 281 280 280 279 279 279 279 279 279 279 278 278 278 277 277 277 276 276 276 276 276 276 276 276 276 276 277 277 277 277 277 276 276 276 276 275 274 274 273 273 273 273 272 271 271 271 270
286 285 285 285 285 285 285 285 284 284 284 284 284 284 284 284 284 284 285 285 286 286 286 286 285 285 284 283 283 282 281 281 281 281 281 281 281 280 280 279 279 279 278 278 278 278 278 277 277 277 277 277 277 277 276 276 276 276 276 275 275 275 275 275 275 275 275 275 275 275 275 275 274 274 273 273 272 272 272 271 271 271 270 269 269
286 285 285 285 285 285 285 284 284 284 284 284 285 285 285 286 287 287 287 287 287 286 286 286 285 285 284 283 282 281 280 281 281 281 280 280 280 280 280 279 279 278 278 278 278 278 277 277 277 277 277 277 277 276 276 276 275 275 275 274 274 274 274 274 274 274 273 273 273 273 273 273 273 273 272 272 272 271 271 270 270 269 269 268 268
285 285 284 284 284 284 284 284 284 285 285 285 285 284 284 285 285 285 285 285 284 284 283 283 283 283 282 282 281 281 281 281 281 280 280 280 279 279 279 279 278 278 278 278 278 278 278 277 277 277 277 276 276 275 275 275 274 274 273 273 273 273 272 272 272 271 271 271 271 271 271 271 271 271 271 271 271 271 270 270 269 268 268 267 267
285 284 284 284 284 284 284 284 284 285 285 284 283 282 281 281 281 282 282 282 282 281 282 282 282 282 281 281 281 280 280 281 280 280 279 279 279 279 278 278 278 278 278 278 278 278 278 277 277 277 276 275 275 274 273 273 272 272 271 271 271 271 270 270 269 268 268 269 269 269 269 269 269 269 270 269 269 269 269 269 268 267 267 267 267
287 285 284 284 284 284 285 285 285 284 284 283 282 281 280 280 280 280 280 280 281 281 281 281 281 281 281 281 280 280 279 279 279 279 278 278 278 278 278 278 278 278 278 278 278 278 277 277 276 275 274 274 273 272 271 271 270 270 269 269 269 269 268 267 266 266 266 267 267 267 267 267 267 267 267 267 267 267 267 267 267 267 266 266 266
289 288 286 285 285 285 285 285 285 284 283 282 282 281 281 280 280 279 279 279 280 280 280 280 280 280 279 279 279 279 279 278 278 278 278 278 278 278 278 278 278 278 278 278 277 276 276 275 274 273 272 272 271 270 270 269 269 269 268 267 266 266 265 265 265 264 264 265 265 265 265 265 265 265 265 266 266 266 266 266 266 266 266 266 265
290 289 288 287 287 286 285 285 284 283 282 282 281 281 281 280 280 279 279 279 279 279 279 279 279 279 278 278 278 278 278 278 278 278 277 277 277 277 276 276 276 276 276 276 275 275 274 274 273 272 271 271 270 270 269 268 267 267 266 265 265 264 264 264 264 263 263 263 264 264 264 264 264 264 264 264 264 265 265 265 265 265 265 265 265
289 288 287 287 287 286 285 284 284 283 282 281 281 281 281 280 279 279 278 278 278 277 278 278 278 278 278 278 277 277 277 277 276 276 276 275 275 275 275 275 274 274 274 274 274 273 273 273 272 271 271 270 269 268 267 266 266 265 265 264 264 264 264 264 263 262 262 262 263 263 263 263 263 263 263 263 263 264 264 264 264 264 264 264 264
287 287 286 285 285 285 284 283 283 282 282 282 282 282 281 280 279 278 277 277 277 277 276 276 276 276 276 276 276 275 275 274 274 275 275 274 274 274 274 274 274 273 273 272 272 272 272 271 271 270 269 268 267 266 266 265 265 265 264 264 264 263 263 263 262 261 261 262 262 262 262 262 262 262 262 262 262 263 263 263 263 263 263 263 263
287 287 286 285 285 284 284 283 282 282 282 282 281 281 281 279 278 277 277 276 276 276 275 275 275 275 274 274 274 273 273 273 273 273 273 273 273 273 273 273 272 272 272 271 271 270 270 269 268 268 267 266 266 265 265 265 264 264 264 264 263 263 263 262 262 262 262 261 261 261 261 261 261 261 261 261 262 262 263 262 262 262 262 262 262
286 286 286 285 285 284 283 282 282 281 281 281 281 281 280 279 279 278 277 276 275 275 274 274 273 273 273 273 272 271 272 272 272 272 272 272 272 271 271 271 270 270 270 269 269 268 268 267 267 266 266 265 265 265 264 264 264 264 264 263 263 263 263 262 262 262 262 261 261 261 261 261 261 261 261 261 261 261 261 261 261 261 262 262 262
285 285 285 285 284 284 283 283 282 281 281 280 280 280 280 279 279 278 277 276 275 274 273 273 273 273 273 272 272 271 271 271 271 271 271 271 270 269 269 269 269 268 268 268 268 267 267 266 266 266 265 265 264 264 264 264 264 263 263 263 263 263 263 262 262 262 262 261 261 261 261 260 260 260 260 260 260 260 260 260 260 260 261 261 261
284 283 283 283 283 283 283 282 282 281 281 281 280 280 280 279 278 278 277 276 275 274 273 273 272 272 272 272 271 271 270 270 270 270 269 269 268 268 268 268 268 268 267 267 267 266 266 266 265 265 265 264 264 264 264 263 263 263 263 263 263 262 262 262 262 262 261 261 261 261 260 260 260 260 260 260 260 260 260 260 260 260 260 260 261
283 282 281 281 282 282 281 281 281 280 280 280 280 279 279 278 277 277 276 276 275 274 273 272 272 271 271 270 270 270 270 270 269 269 268 268 267 268 267 267 267 267 267 266 266 266 266 265 265 265 264 264 264 264 263 263 263 263 263 263 262 262 262 262 262 261 261 261 261 261 261 260 260 260 260 260 260 259 259 259 259 260 260 260 260
282 282 281 280 280 281 280 280 279 279 279 279 278 278 277 277 276 276 275 275 274 273 272 271 270 270 270 269 268 268 269 269 268 268 267 267 267 267 267 267 266 266 266 266 266 265 265 265 265 264 264 264 264 263 263 263 263 263 263 263 262 262 262 262 262 261 261 261 261 261 261 261 260 260 260 260 260 260 259 259 259 259 259 260 260
281 281 280 280 280 280 280 279 278 278 277 277 277 276 276 276 275 275 274 274 273 272 271 270 270 269 269 268 267 267 268 267 267 267 267 266 266 266 266 266 266 266 265 265 265 265 265 265 264 264 264 264 264 263 263 263 263 263 263 263 262 262 262 262 262 261 261 261 261 261 261 261 260 260 260 260 260 260 260 260 259 259 259 259 259
280 280 279 278 278 278 278 277 277 276 276 275 275 275 275 275 274 273 273 273 272 271 271 270 269 268 268 268 268 267 267 267 267 266 266 266 266 266 266 266 265 265 265 265 265 265 265 265 264 264 264 264 263 263 263 263 263 263 263 262 262 262 262 262 262 261 261 261 261 261 261 261 260 260 260 261 260 260 260 260 259 259 259 259 259
279 278 278 277 276 276 276 275 275 275 275 274 274 274 273 273 273 272 272 271 271 270 269 269 268 267 267 267 267 267 267 266 266 266 266 266 266 265 265 265 265 265 265 265 264 264 265 265 264 264 264 264 263 263 263 263 263 262 262 262 262 262 262 262 261 261 261 261 261 261 261 261 261 260 260 260 260 260 260 259 259 259 258 258 258
277 277 277 276 276 275 274 274 274 274 274 274 273 273 272 271 271 271 270 270 269 269 268 267 267 266 266 266 266 266 266 266 266 266 266 265 265 265 265 264 264 264 264 264 264 264 264 264 264 264 264 263 263 263 263 263 262 262 262 262 262 262 262 261 261 261 261 261 261 261 261 261 261 260 260 259 259 260 260 259 259 259 258 258 257
276 276 275 275 275 274 274 273 273 273 273 272 272 271 271 270 269 269 268 268 267 267 267 266 266 266 266 266 266 265 265 265 265 265 265 265 265 264 264 264 264 264 264 264 264 264 264 264 264 263 263 263 263 262 262 262 262 262 262 262 262 262 262 261 261 261 261 260 260 260 260 261 260 260 260 259 259 259 259 259 259 258 258 257 257
274 274 274 274 274 274 273 273 272 272 271 270 270 269 269 268 268 267 267 266 266 266 266 266 266 266 266 265 265 265 265 265 265 265 265 264 264 264 264 264 264 264 264 264 264 264 263 263 263 263 263 263 262 262 262 262 262 263 263 263 263 263 262 262 261 261 261 261 260 260 260 260 260 260 259 259 259 259 259 258 258 258 257 257 257
273 273 273 273 273 273 272 271 271 270 269 268 268 268 267 267 266 266 266 266 265 265 265 265 265 265 265 265 265 264 264 264 264 264 264 264 264 263 263 263 263 263 264 264 264 264 263 263 263 262 262 262 262 263 263 263 263 263 263 263 263 262 262 262 262 262 261 261 261 260 260 260 260 260 259 259 258 258 258 258 258 258 257 257 257
271 272 271 271 270 270 270 269 268 268 267 267 267 267 266 266 265 265 265 265 265 265 265 265 265 265 264 264 264 264 264 264 264 264 263 263 263 263 263 263 263 263 263 264 264 263 263 263 262 262 262 262 263 263 263 263 263 263 263 263 262 262 262 262 262 262 261 261 261 261 260 260 260 260 259 258 258 258 258 258 258 258 257 257 257
269 269 269 269 268 268 268 267 267 267 266 266 266 266 265 265 265 265 265 265 265 265 265 264 264 264 264 264 263 263 263 263 263 263 263 263 263 263 263 263 263 263 263 263 263 263 263 262 262 262 262 263 263 263 263 263 263 263 263 262 262 262 262 262 261 261 261 261 260 260 260 260 260 259 259 258 258 258 258 258 258 258 258 257 257
Wind_Speed
27 27 28 29 29 30 30 33 34 33 33 35 35 34 34 34 34 33 31 31 32 35 34 31 30 32 33 34 35 35 34 34 34 35 35 35 35 34 33 32 32 31 30 28 26 25 23 21 19 17 16 14 12 11 10 9 8 8 8 7 8 9 8 7 7 8 8 9 10 12 14 16 17 18 19 20 22 23 24 23 24 24 24 24 24
27 28 29 31 31 30 30 31 34 34 34 35 35 34 34 35 34 32 32 31 32 34 33 31 30 32 34 36 36 36 36 35 35 35 36 35 34 34 33 33 33 31 30 28 26 25 23 21 19 17 15 13 12 11 9 9 8 8 8 8 9 10 9 8 7 8 9 9 10 11 13 16 16 17 19 20 21 22 24 25 25 25 24 24 24
26 26 27 31 32 31 31 32 34 34 34 34 34 34 35 34 33 32 32 32 33 35 33 31 31 33 36 37 37 37 37 36 36 36 36 35 35 34 34 33 33 31 29 28 27 25 23 20 19 17 15 13 12 10 9 9 9 9 9 10 10 11 11 10 8 8 9 10 9 10 11 13 16 18 20 22 22 24 25 26 26 26 25 24 25
26 26 28 31 33 33 34 34 34 35 35 35 35 35 35 34 33 32 32 33 34 33 30 29 31 33 36 38 38 38 38 38 37 37 36 36 35 35 34 33 32 30 29 28 26 25 23 21 19 17 15 13 11 10 9 10 10 10 11 12 11 12 12 12 12 10 9 10 11 11 12 16 19 20 22 24 24 25 26 27 27 27 27 26 25
28 29 29 31 33 35 36 36 35 36 36 36 36 36 35 34 33 32 32 33 33 31 29 30 31 33 37 39 40 39 39 39 38 38 37 36 36 35 34 33 31 30 28 27 25 24 23 21 19 17 15 12 10 9 11 12 12 12 12 13 13 13 14 15 15 13 11 12 13 13 14 18 21 23 24 25 25 26 26 27 28 28 28 27 25
29 31 31 30 32 35 37 37 37 37 37 37 37 37 36 34 33 32 32 33 32 31 31 31 31 34 37 40 41 41 41 40 40 39 38 37 35 35 33 32 30 29 28 26 25 23 22 20 18 16 14 11 10 11 12 13 13 13 14 15 15 15 16 16 16 16 14 14 15 15 15 17 20 22 23 23 24 25 25 26 27 26 26 25 23
30 32 33 33 33 34 37 39 38 38 38 38 38 37 36 34 33 33 33 34 33 32 32 32 32 34 37 40 41 42 42 42 41 40 39 37 35 34 32 31 30 28 28 26 24 22 21 18 17 15 13 11 12 13 13 13 13 14 16 17 17 17 18 18 17 17 16 16 16 16 16 17 19 22 23 23 25 26 26 26 24 21 18 19 20
30 31 34 35 33 34 36 38 38 39 38 38 38 37 36 34 34 34 35 35 34 33 32 33 33 34 37 40 41 41 42 42 41 40 38 37 35 33 32 31 30 29 27 25 24 22 20 18 17 14 13 13 14 14 14 14 16 18 19 20 19 19 20 20 19 18 17 17 16 16 15 14 17 20 22 22 23 24 22 20 20 18 16 17 20
30 30 32 36 36 35 35 36 37 38 38 37 38 37 35 34 33 34 34 34 33 32 31 32 33 34 36 39 40 40 41 41 41 40 38 36 34 33 32 31 29 28 26 25 24 22 20 18 16 15 15 16 15 16 17 17 19 21 22 22 22 22 22 22 21 20 19 18 17 16 14 14 16 17 18 19 21 22 18 15 19 21 18 18 21
31 28 30 34 34 34 35 35 35 36 37 37 37 36 35 33 33 33 33 32 31 30 30 31 32 34 36 38 38 38 39 40 39 38 37 36 35 34 32 30 28 27 26 25 24 22 19 17 16 17 17 17 18 20 21 21 21 23 24 25 24 24 24 25 24 23 22 22 22 17 13 15 19 19 20 22 22 21 19 16 18 20 17 17 20
31 28 28 28 27 29 32 33 34 35 36 36 36 35 34 32 31 32 31 30 30 29 30 31 32 34 36 37 38 38 39 39 38 38 37 36 35 34 32 30 28 27 26 24 22 20 18 18 18 18 17 18 21 24 25 24 24 25 27 28 27 27 28 27 27 26 26 27 27 22 17 20 27 27 24 23 22 21 21 18 17 17 15 15 18
30 28 26 23 23 27 30 30 32 34 35 35 34 33 32 30 29 29 29 29 29 29 30 31 32 34 35 36 38 39 39 38 38 38 37 35 34 33 31 30 28 26 24 21 19 18 18 19 18 18 19 21 24 27 28 28 28 29 30 30 31 32 31 31 30 29 30 31 31 30 27 28 33 33 28 24 22 20 19 19 16 17 16 16 18
29 27 26 24 25 28 28 29 31 33 33 33 32 31 30 29 29 29 29 29 29 29 30 31 32 33 34 36 37 38 38 38 38 37 36 35 33 32 30 29 26 24 21 19 18 19 19 18 18 20 23 24 26 28 30 31 31 32 33 34 35 36 35 35 34 33 33 33 33 35 35 33 34 37 34 29 25 20 17 18 17 17 18 18 21
26 25 26 26 27 28 28 28 29 31 31 30 30 30 30 29 29 29 29 29 28 28 29 30 32 33 34 35 35 35 36 36 36 36 35 34 32 30 28 26 23 20 19 19 18 18 18 19 21 24 26 26 27 29 31 33 35 36 37 37 39 39 39 38 37 36 36 35 36 39 41 38 37 39 37 30 28 26 22 22 20 19 20 21 23
24 23 24 26 27 27 28 28 28 29 29 29 29 29 29 29 29 28 28 28 28 29 29 30 31 31 32 32 33 33 33 34 35 35 34 32 30 29 26 24 22 20 19 18 17 17 19 21 23 26 28 29 29 30 32 35 37 38 39 40 41 41 41 40 39 39 38 38 39 41 43 42 40 40 38 31 30 30 27 27 26 23 23 25 26
22 22 23 25 26 26 27 28 27 27 28 28 28 28 28 27 27 27 27 27 27 27 28 29 30 30 30 31 31 31 32 32 33 32 31 30 29 27 25 23 21 19 17 16 17 20 22 23 25 29 31 31 31 32 34 35 37 38 38 40 42 42 44 44 41 40 39 38 41 41 42 42 37 34 34 30 27 26 23 24 24 19 19 22 24
19 20 22 23 25 26 27 28 27 27 28 28 27 28 27 27 27 26 26 26 26 26 26 27 28 28 29 30 30 31 30 29 29 29 29 28 27 25 24 21 18 15 15 18 22 23 24 25 28 31 32 32 32 33 34 35 36 37 37 39 40 42 45 45 43 42 41 40 41 41 41 42 36 32 32 30 29 28 25 24 22 15 14 17 20
17 20 21 22 24 25 26 27 27 26 27 27 27 27 27 26 26 26 25 25 25 24 24 25 25 26 27 28 29 29 29 27 27 27 26 25 24 22 20 16 15 16 19 22 24 24 26 28 30 31 32 32 33 34 35 34 34 36 37 38 40 43 46 46 43 43 42 40 40 40 40 40 38 36 35 33 31 30 28 29 29 22 17 16 16
19 21 22 22 23 24 24 26 26 26 26 26 26 26 26 25 25 24 24 23 23 23 23 23 23 23 24 25 26 26 26 25 25 25 23 22 21 18 15 15 17 20 22 24 25 26 29 30 31 32 32 32 33 34 34 33 34 36 37 36 39 44 45 43 40 39 38 37 37 36 35 35 34 33 34 33 31 29 28 30 32 28 24 23 19
20 21 21 21 22 22 23 24 25 25 25 25 25 24 24 24 24 23 23 22 22 22 22 22 22 22 22 23 23 23 24 24 24 23 22 20 18 15 15 17 20 22 23 24 26 28 30 31 31 31 31 31 32 32 31 31 32 34 35 36 39 42 41 39 37 35 34 33 33 33 33 34 33 31 31 31 30 29 28 29 32 31 28 28 26
18 19 19 20 20 21 22 24 24 24 24 24 24 23 23 23 23 23 23 22 21 21 21 21 22 21 21 21 21 21 21 21 21 21 20 18 16 16 18 20 22 24 24 25 26 27 29 30 30 30 29 29 29 29 28 27 27 29 30 31 33 33 31 31 31 30 29 30 31 30 29 29 29 29 30 30 30 30 28 28 30 32 32 32 32
17 17 18 19 20 21 22 23 23 22 22 22 22 22 22 22 23 23 23 22 21 21 21 22 22 21 21 21 21 21 20 20 20 21 20 19 20 20 22 23 23 24 24 25 26 28 29 30 29 28 27 26 26 26 24 23 22 24 26 26 26 26 26 26 27 25 24 24 23 22 23 23 24 26 28 28 27 27 27 27 27 29 32 35 36
16 17 18 19 20 21 21 21 21 21 21 21 22 22 22 21 22 22 23 23 22 22 22 22 22 22 22 22 22 23 23 24 24 23 22 22 22 21 22 22 22 22 23 25 27 27 27 27 26 25 25 24 24 22 20 19 20 21 23 23 24 24 24 24 24 23 21 20 18 19 21 21 20 22 23 23 23 22 22 25 26 26 30 33 34
18 18 19 19 20 20 20 20 20 20 20 21 22 22 23 23 23 23 23 24 24 24 23 23 23 22 22 22 22 22 23 23 22 21 20 20 19 19 19 19 19 19 21 23 24 24 24 24 23 22 21 18 17 15 15 15 16 16 17 18 19 20 21 20 19 20 21 21 18 17 19 19 18 18 18 20 24 24 23 25 27 26 27 30 32
19 19 19 19 19 19 19 19 19 19 20 21 22 23 24 24 23 23 23 24 24 24 23 23 23 22 21 22 22 22 21 20 19 18 17 16 16 16 17 17 18 18 17 18 19 19 19 20 19 17 16 14 14 15 16 17 17 18 20 20 21 22 22 20 18 19 21 21 19 19 21 21 20 19 18 21 26 27 27 28 28 27 27 28 29
20 20 19 19 19 19 19 19 19 20 20 21 21 22 23 23 22 22 22 22 22 21 21 21 20 19 19 20 20 20 18 17 16 15 15 15 15 15 16 17 18 19 19 19 19 19 18 18 17 16 16 16 16 16 16 15 14 13 13 14 14 15 15 15 15 16 16 17 17 18 19 19 20 21 22 25 28 28 28 28 27 26 26 26 27
22 21 21 20 20 20 20 20 20 20 20 20 20 21 21 21 22 21 21 21 20 19 19 20 19 19 18 18 17 16 15 15 14 14 15 15 15 15 16 17 18 19 20 20 19 18 17 16 15 14 13 13 12 10 9 7 6 5 5 5 6 7 8 10 12 13 14 15 16 17 17 17 19 21 23 25 25 25 26 26 25 25 24 23 23
22 22 22 22 21 21 21 21 21 20 20 20 20 21 21 21 21 21 21 21 21 20 20 20 20 19 19 18 16 15 15 15 15 14 14 14 14 14 15 15 15 15 15 14 14 13 12 11 10 9 8 7 6 5 4 3 3 4 5 6 6 7 8 9 10 11 13 13 15 16 17 17 17 17 18 20 20 21 23 25 24 24 22 20 20
22 22 22 22 22 21 21 21 21 21 20 19 19 18 18 18 18 18 17 18 17 16 16 17 17 16 16 15 15 16 16 14 13 12 11 11 12 12 12 11 11 11 10 9 9 8 6 5 5 4 4 4 4 3 4 4 4 4 5 5 6 6 6 8 9 10 11 12 14 15 16 17 18 18 17 16 16 16 17 19 20 21 19 18 19
23 23 23 23 22 22 22 22 22 22 21 20 18 16 13 12 11 11 12 12 12 11 10 11 12 11 11 12 13 13 12 11 11 10 10 10 10 9 9 8 8 7 6 5 5 5 5 5 5 5 5 5 4 3 2 2 3 3 3 4 4 4 5 6 7 8 9 11 13 14 15 16 17 18 17 17 16 15 13 14 16 19 18 17 17
25 24 24 24 24 24 24 24 23 22 21 20 20 19 16 12 8 7 8 9 9 8 8 8 10 10 10 11 11 9 8 9 10 10 9 9 8 7 6 6 6 5 5 5 6 6 6 6 5 5 4 3 2 2 1 1 1 2 3 4 4 4 4 5 7 10 12 12 12 13 14 15 15 16 16 17 17 17 15 13 13 15 17 16 15
27 26 25 25 24 24 24 24 23 22 22 22 22 22 21 17 13 9 8 8 7 7 8 8 10 10 9 9 9 9 9 8 8 8 8 7 7 6 5 5 5 5 6 7 7 6 6 5 4 3 2 2 1 1 0 1 3 4 5 6 6 5 6 7 10 12 11 10 10 11 11 12 13 14 15 15 16 17 16 14 12 12 12 12 12
27 27 27 26 25 25 24 25 24 24 24 24 24 24 24 21 17 14 12 10 8 8 8 8 8 9 9 8 8 8 9 9 9 9 9 9 9 8 8 8 8 8 8 7 6 5 6 5 3 2 2 2 1 2 2 4 7 9 9 9 8 8 9 10 11 11 8 7 8 9 9 10 11 12 13 14 14 15 15 15 14 12 11 10 10
26 26 26 26 26 26 26 26 26 26 26 26 25 25 24 22 21 21 21 18 15 14 12 10 9 10 11 11 11 11 12 12 12 12 11 11 10 9 8 8 8 9 9 8 7 7 7 7 5 4 5 5 6 7 8 9 9 9 8 9 8 8 9 10 9 8 7 6 7 7 8 9 10 11 12 12 12 13 14 14 14 13 11 11 12
25 25 25 25 26 26 26 26 27 27 26 26 25 24 22 22 22 23 23 23 22 20 19 17 15 15 15 14 13 13 13 13 12 11 10 10 9 9 9 8 8 9 9 9 9 10 10 10 9 9 10 9 9 10 9 8 7 7 7 8 8 8 9 9 7 7 7 6 6 7 9 9 10 10 11 11 12 12 12 11 12 11 11 11 11
24 25 25 25 25 26 26 26 26 26 26 25 24 23 22 22 22 21 21 22 24 24 22 21 19 18 16 14 12 11 11 11 11 10 9 9 8 9 9 9 10 10 10 9 10 10 10 11 10 10 10 9 8 8 7 6 6 6 6 7 7 7 8 7 7 7 9 8 7 9 11 11 11 11 11 10 11 11 10 10 10 9 9 8 8
25 26 26 26 26 26 26 26 25 25 25 24 23 23 23 23 22 21 21 23 24 24 23 21 20 18 16 14 13 11 10 10 9 7 6 6 6 7 7 8 9 9 9 8 9 8 8 8 8 8 8 7 7 6 6 5 6 5 5 6 6 7 7 7 8 9 11 10 10 12 14 14 14 13 12 11 10 10 9 9 9 9 8 8 8
25 26 26 26 26 26 26 25 25 24 24 23 22 22 22 22 21 21 22 23 24 23 22 21 20 18 17 16 15 12 10 8 6 5 5 5 5 6 6 7 7 8 8 8 8 8 7 7 7 7 7 7 6 6 5 5 6 6 6 6 6 7 7 8 8 10 10 10 10 12 14 14 13 13 13 12 11 10 9 8 9 9 8 7 6
25 24 24 24 25 25 25 25 24 23 23 22 22 21 21 21 21 21 22 23 23 23 22 21 20 19 18 17 16 14 10 8 6 5 5 5 5 6 6 7 7 8 8 8 8 7 7 7 7 7 7 7 7 6 6 6 6 6 6 6 6 7 7 8 9 10 10 9 9 11 12 12 12 13 13 13 11 11 10 10 9 8 8 7 6
24 24 23 23 24 24 23 23 23 22 22 22 21 21 21 21 21 21 22 22 23 22 21 21 20 18 17 16 15 14 12 10 9 7 6 6 6 6 7 7 8 8 8 8 8 8 7 7 7 7 7 7 7 7 7 7 7 7 8 8 7 8 8 8 9 9 9 10 10 10 11 11 12 13 12 11 10 11 11 11 10 8 8 8 7
24 24 23 22 22 22 21 21 20 20 20 20 21 21 21 21 21 21 21 21 21 21 20 19 18 17 16 14 13 12 12 11 9 8 7 7 7 7 7 8 8 8 8 8 8 8 7 7 8 8 8 8 8 8 8 8 8 9 9 9 9 9 9 9 9 9 10 10 10 10 10 11 11 12 12 11 11 11 11 10 10 8 8 8 7
23 23 23 21 20 20 20 20 20 20 20 20 20 20 20 20 19 20 19 19 20 20 19 18 16 15 14 11 10 11 11 10 9 9 8 8 8 8 8 8 8 8 8 8 7 8 8 8 8 8 8 9 9 9 10 10 10 10 10 10 10 10 10 10 9 9 10 11 10 10 10 10 11 12 12 12 12 12 12 12 11 10 9 8 9
21 22 21 21 20 20 20 20 21 20 20 19 19 18 18 17 17 18 18 18 18 18 18 17 16 15 14 12 11 11 10 9 9 9 8 9 9 8 8 8 8 8 8 8 8 8 8 9 9 9 10 10 11 11 11 11 11 11 11 12 12 12 11 10 10 10 10 11 11 11 10 10 11 12 12 12 12 12 13 13 13 12 10 10 10
19 21 21 21 21 20 20 20 20 20 19 18 18 17 16 16 16 16 16 16 16 16 16 16 16 15 15 14 13 11 9 8 9 9 9 9 9 9 9 9 9 9 9 9 9 10 10 10 11 11 11 12 12 12 12 12 12 13 13 13 13 13 12 11 11 11 12 12 12 12 11 11 11 12 13 12 12 12 13 14 14 13 12 11 10
19 20 21 21 21 20 20 19 19 18 18 17 17 16 15 15 15 15 15 15 15 16 15 16 16 15 14 14 13 11 10 10 10 10 10 10 10 10 10 11 11 11 11 11 11 12 12 12 12 13 13 13 13 13 13 13 13 14 14 15 15 15 14 12 12 12 13 13 13 13 12 12 11 12 13 13 13 13 13 14 14 14 14 12 11
18 19 20 20 20 20 19 18 18 17 16 16 16 16 16 15 14 14 14 14 14 15 15 14 14 14 13 12 12 11 10 10 10 10 11 11 10 11 11 12 12 13 13 13 13 14 14 14 14 14 14 14 14 15 15 15 15 15 16 16 16 15 14 13 13 13 14 14 13 13 13 13 13 13 13 13 13 13 13 14 14 14 14 14 13
16 17 18 18 18 19 18 17 16 15 15 15 15 15 15 15 14 14 14 14 13 13 13 13 12 12 12 11 11 11 11 11 11 11 12 12 12 12 12 13 14 14 14 15 15 15 15 15 15 16 16 16 16 16 16 16 16 16 17 17 16 16 15 14 14 14 14 14 14 14 14 14 14 13 13 13 13 13 14 14 14 14 14 14 13
15 15 16 16 16 17 16 16 15 15 15 15 14 14 14 14 13 13 13 13 12 12 12 11 11 11 11 10 11 11 11 12 12 13 13 13 13 13 13 14 15 15 16 17 17 17 17 17 17 17 18 18 17 17 17 16 17 17 17 17 17 16 15 15 15 14 14 14 14 14 15 14 14 14 13 13 13 13 13 13 13 13 13 13 13
13 14 14 14 14 14 14 14 14 14 14 14 14 13 12 12 12 12 11 11 11 11 11 10 10 11 11 11 11 12 12 13 13 14 14 14 14 14 15 16 16 17 18 18 18 17 18 18 18 18 18 18 18 17 17 17 17 17 17 17 17 16 16 16 15 15 14 14 15 15 15 15 14 14 13 13 12 12 12 12 12 12 12 12 13
12 12 12 12 12 12 12 12 12 12 12 12 11 11 11 11 10 10 10 10 10 10 10 10 10 11 11 11 12 12 13 14 15 15 15 15 16 16 16 17 18 18 19 19 19 19 19 19 19 19 19 18 18 18 18 18 18 18 18 17 17 17 16 16 15 15 14 15 15 15 15 15 15 14 13 12 11 11 11 10 10 10 11 11 11
11 11 11 11 11 10 11 10 10 10 10 9 9 9 9 9 9 9 10 10 10 10 10 10 10 11 11 12 13 13 14 15 16 16 17 17 18 18 18 19 19 20 20 20 20 20 20 19 19 19 19 19 19 19 19 19 19 18 18 18 17 17 17 16 15 14 14 14 15 15 15 15 15 14 12 11 11 11 11 11 11 11 12 12 12
Wind_Direction
215 214 215 216 217 219 220 222 224 224 225 228 230 230 230 226 224 224 227 229 225 217 211 211 216 218 215 214 213 213 213 211 208 204 202 201 201 200 198 195 194 192 189 189 191 192 193 191 190 190 192 193 194 198 204 209 215 220 224 226 229 232 226 225 251 266 267 271 277 279 281 282 281 280 282 285 290 293 295 296 297 298 299 300 300
215 216 217 217 217 218 219 221 224 224 224 227 228 229 227 225 225 227 228 228 224 217 211 211 217 221 218 215 213 212 212 211 207 203 200 199 198 197 194 192 190 189 188 189 191 192 193 193 192 191 192 195 197 202 211 217 223 230 235 236 237 242 239 229 243 263 267 275 286 287 287 287 285 283 285 289 291 293 295 297 297 298 299 299 299
215 214 215 216 217 218 220 222 223 223 224 225 226 226 225 225 228 229 229 226 221 215 214 215 219 221 219 215 213 211 210 208 205 201 199 198 196 194 193 192 191 190 191 192 193 193 193 194 195 195 194 196 201 208 217 226 232 239 243 245 245 250 253 244 240 257 270 275 279 280 281 286 289 290 292 295 296 296 297 298 299 299 299 299 298
214 212 214 217 218 218 220 222 222 223 223 224 224 224 225 227 229 230 229 225 218 215 219 222 222 222 219 215 212 210 208 205 202 199 198 198 196 194 192 193 193 194 195 196 195 195 195 196 197 198 198 200 204 214 227 236 241 244 248 252 254 256 261 259 252 252 264 274 276 275 278 284 289 292 296 298 299 298 299 300 301 300 300 300 300
216 215 215 217 218 219 220 221 221 223 223 224 224 224 225 227 228 228 227 223 218 219 225 225 224 223 219 215 212 210 207 204 201 199 198 198 198 196 194 194 195 196 198 200 199 199 200 200 200 200 200 203 212 228 238 242 245 248 253 258 260 262 264 265 262 257 255 264 273 277 280 286 290 294 297 298 298 298 298 299 299 299 299 301 300
219 217 215 215 216 218 219 220 222 223 224 224 224 224 224 225 226 226 224 220 219 224 227 225 224 224 220 216 213 210 207 204 201 200 199 198 197 197 196 196 196 199 201 203 204 205 205 204 204 203 203 210 229 243 245 245 248 254 259 262 262 263 264 265 265 262 259 263 271 275 276 281 287 292 294 295 294 294 295 296 296 295 295 296 297
220 218 217 216 217 218 218 220 222 223 223 224 224 224 224 225 225 224 221 219 221 225 226 224 224 224 220 216 212 210 207 203 201 200 199 198 197 197 196 197 199 201 203 205 206 207 208 208 207 205 209 224 241 245 244 247 254 260 263 262 261 260 262 262 263 263 263 265 268 270 272 276 281 286 289 290 290 290 289 289 290 289 284 283 286
220 218 218 217 217 219 219 220 221 222 223 224 223 223 224 224 225 223 221 220 221 223 224 224 224 222 219 215 212 209 206 202 200 199 198 198 197 197 198 199 201 202 204 206 207 208 210 210 209 210 218 231 239 241 244 251 259 262 262 261 258 257 259 259 259 261 263 264 264 266 268 271 275 281 284 285 285 286 285 279 277 279 276 274 278
220 218 218 218 218 219 219 219 220 221 222 221 221 222 222 223 223 223 222 222 223 224 224 224 222 218 215 212 210 207 204 202 201 201 200 199 198 199 200 201 202 203 205 207 208 210 211 210 213 219 225 232 237 240 246 252 258 262 262 260 257 256 257 256 255 257 259 259 261 262 262 263 267 270 272 272 275 279 278 267 267 276 280 278 278
218 215 216 218 218 218 219 219 219 219 218 219 219 219 220 220 220 221 222 223 223 223 221 220 219 215 211 209 206 205 204 203 203 203 204 203 202 201 201 202 204 207 208 209 209 210 211 215 222 225 229 237 243 245 247 250 257 262 262 260 258 258 258 256 254 255 257 259 260 260 257 259 265 267 267 271 273 272 270 263 266 277 280 279 282
216 215 216 216 214 215 218 217 217 216 216 217 217 217 218 218 219 220 220 220 220 219 217 216 216 213 210 207 205 205 205 203 203 203 204 206 206 205 204 205 206 208 210 211 211 212 217 225 228 229 239 252 255 252 249 251 257 262 262 260 260 261 260 257 256 256 257 258 260 260 255 260 270 273 271 271 269 266 267 265 265 272 273 274 282
217 217 217 213 211 214 215 215 214 214 215 215 214 215 216 216 217 217 216 216 217 216 215 215 214 211 209 207 206 206 205 203 203 204 205 206 208 208 207 206 206 209 210 211 213 220 227 230 230 239 254 263 262 257 254 256 261 264 263 262 262 262 261 260 258 258 259 260 261 262 260 263 271 275 272 268 267 264 267 267 260 261 265 266 273
217 217 217 215 214 215 214 212 212 212 212 212 211 211 212 212 214 215 214 214 214 212 212 213 212 209 207 207 206 205 204 203 204 205 206 206 207 207 207 207 209 210 209 212 221 228 230 230 237 251 263 268 266 261 259 262 265 266 265 264 263 263 263 262 261 261 262 261 260 263 266 265 268 274 274 271 269 266 263 264 260 260 262 262 269
215 216 217 217 216 214 213 211 210 210 209 208 207 208 209 211 213 214 212 210 208 208 210 211 210 208 207 206 206 205 204 203 204 205 205 206 207 207 208 209 210 210 213 221 228 230 230 236 247 258 266 269 268 266 265 266 267 267 266 264 264 265 265 265 265 264 264 262 260 265 272 271 269 273 276 274 273 271 268 268 267 265 266 268 273
213 213 214 216 214 212 211 209 207 206 206 204 204 206 208 209 210 209 208 207 207 207 209 209 207 206 206 206 204 204 204 204 205 206 206 206 207 207 208 208 208 212 218 224 228 231 236 244 254 263 269 271 271 271 270 269 269 267 265 265 265 265 265 265 266 266 265 265 264 268 274 275 273 273 275 274 274 275 275 274 274 272 271 274 277
210 209 211 212 211 209 208 206 203 202 202 201 203 204 205 206 206 206 205 205 206 207 207 208 206 204 203 203 202 203 205 206 206 206 206 205 205 205 206 207 210 215 221 227 234 238 242 249 260 269 272 272 272 273 272 270 268 267 266 267 267 266 266 265 265 265 264 265 266 269 272 274 273 272 274 275 274 278 281 277 273 270 266 269 272
206 206 208 208 207 207 206 203 200 199 199 199 200 202 203 204 204 204 201 199 202 204 204 205 205 203 202 201 201 203 204 205 206 205 203 203 203 203 204 207 213 223 232 238 240 242 246 256 266 272 273 273 274 275 272 269 268 268 268 269 270 269 269 269 268 268 268 268 269 270 271 272 272 272 274 275 275 278 278 272 269 264 253 258 265
201 203 205 206 205 204 203 202 199 198 198 199 200 201 202 202 202 202 199 197 198 199 200 202 203 204 204 203 203 204 203 202 203 202 201 202 203 202 204 212 227 239 243 243 243 246 253 261 268 272 273 274 276 276 273 270 269 269 269 270 271 271 272 274 275 276 277 277 277 277 276 276 277 277 278 279 279 278 272 268 271 268 254 252 259
198 201 203 203 203 203 202 201 200 198 198 199 200 200 199 200 199 197 196 196 195 194 196 198 200 202 205 204 203 204 201 199 200 201 200 199 200 203 215 231 243 247 248 247 248 252 258 264 269 273 275 277 278 278 276 273 271 271 271 269 268 271 274 277 279 280 283 284 284 284 284 284 285 285 286 288 288 284 276 271 271 267 259 258 260
198 200 200 200 201 201 199 198 198 198 198 197 198 198 197 196 195 192 192 194 193 193 194 196 197 199 201 202 203 204 202 198 199 198 195 195 201 217 235 244 248 250 251 251 253 257 262 267 273 277 279 280 280 280 279 276 274 274 272 267 266 272 280 282 282 283 285 286 287 288 287 287 288 287 288 290 290 288 284 279 274 267 261 259 258
194 194 195 195 195 195 194 195 196 197 197 195 194 194 195 194 191 188 188 188 187 188 190 193 195 196 197 199 200 201 201 198 196 193 193 201 218 235 243 247 250 252 252 252 254 259 264 271 277 280 280 281 281 281 281 278 273 271 269 267 270 278 284 285 285 285 285 285 286 284 283 284 284 285 286 287 287 287 287 286 281 272 263 258 256
187 187 188 187 187 188 189 191 192 192 193 192 189 188 189 191 189 186 184 183 183 184 185 187 189 188 189 193 194 194 194 193 193 194 202 216 230 238 243 246 249 250 251 254 257 262 268 274 277 279 279 279 279 280 279 275 269 267 267 270 276 282 284 285 287 287 286 286 283 279 279 281 282 284 288 288 288 289 289 291 290 280 269 263 260
176 177 178 178 179 182 183 186 188 188 188 189 187 185 184 185 185 183 181 179 178 179 180 182 182 181 181 186 189 191 191 191 196 203 212 223 230 235 240 244 247 249 252 255 260 265 270 273 275 277 278 280 281 281 279 275 272 271 274 278 281 285 286 285 285 285 285 285 282 280 284 286 284 285 288 290 292 293 291 293 295 286 275 271 267
167 167 170 172 173 177 178 181 183 184 185 185 184 182 180 179 180 179 179 176 174 174 175 177 177 177 179 184 189 194 196 199 204 211 217 222 227 232 237 241 245 247 251 257 262 266 269 271 273 276 278 278 279 277 274 272 272 273 277 281 284 287 289 288 286 284 284 283 282 282 287 290 289 288 288 291 295 296 294 295 298 291 280 276 274
160 161 164 165 167 170 172 174 178 179 181 181 180 177 176 174 174 174 175 174 172 170 171 174 177 180 183 189 195 200 203 206 208 210 214 218 224 229 235 240 242 241 244 252 258 260 262 265 267 270 270 269 268 269 271 273 274 275 276 276 276 280 285 287 286 284 282 281 280 282 286 289 288 286 286 291 297 300 300 300 298 293 286 281 278
154 156 159 159 163 165 164 165 169 172 174 177 177 174 172 170 169 168 169 170 170 171 175 179 183 186 189 195 200 202 203 205 207 210 214 218 223 227 230 234 237 237 237 241 245 249 255 261 264 266 269 271 274 278 283 285 286 286 285 281 279 280 283 285 287 289 289 289 290 291 292 293 291 290 294 300 304 305 305 303 299 293 289 286 282
152 154 155 155 159 162 160 159 161 164 168 171 172 171 171 171 169 168 170 173 176 180 184 186 188 190 191 195 198 199 200 204 206 209 211 213 217 220 223 227 231 234 236 239 244 251 259 265 269 272 277 283 290 294 298 303 304 307 311 308 301 292 287 289 292 295 297 298 299 299 300 300 299 299 300 303 306 306 304 303 299 293 290 288 281
151 153 154 154 156 159 160 159 157 159 163 166 167 168 171 174 176 177 180 184 185 187 188 189 190 191 192 193 193 193 200 206 206 206 207 208 210 211 215 220 225 230 236 242 247 256 263 268 273 282 290 298 304 308 313 318 316 313 315 312 303 294 291 293 294 294 295 297 299 300 301 301 301 303 301 299 299 301 301 301 298 293 290 285 277
151 152 153 155 157 158 160 160 159 158 159 160 162 166 173 179 182 184 186 188 189 191 193 194 195 195 195 195 192 192 199 204 202 201 201 203 206 210 213 217 221 225 232 240 246 253 260 267 274 285 294 298 300 302 304 306 308 308 311 312 308 304 303 303 301 299 300 301 299 299 300 299 298 298 297 295 295 296 296 295 295 293 290 282 275
151 152 155 157 158 159 159 160 161 160 157 155 153 152 157 168 176 181 184 184 185 190 192 193 194 190 187 189 190 196 203 201 192 191 194 195 197 200 201 205 212 217 223 231 240 245 253 264 269 271 275 278 278 280 286 299 309 312 315 320 318 314 313 313 311 309 307 303 299 297 297 297 296 297 296 295 298 300 296 290 291 293 291 282 275
152 154 159 161 162 163 162 161 161 161 158 155 151 142 134 132 136 149 164 168 174 179 177 176 179 180 181 186 187 186 187 185 180 179 180 182 184 188 194 204 217 226 227 227 232 238 245 251 251 249 249 244 239 243 254 307 321 319 318 317 315 317 320 318 314 312 310 307 303 301 301 300 300 301 301 300 302 304 303 295 291 292 290 284 276
158 159 163 165 165 167 166 163 163 162 159 157 154 146 137 126 114 113 127 140 151 156 154 158 165 166 168 178 178 167 159 163 168 167 169 171 170 170 175 182 190 199 208 213 217 223 228 226 215 208 215 209 217 241 263 312 308 307 309 308 307 311 313 309 310 312 312 309 307 307 308 308 306 305 307 306 306 307 307 304 300 295 289 283 278
166 165 167 167 167 169 169 168 167 166 164 162 160 155 148 140 130 122 117 112 112 120 125 132 142 144 144 150 157 153 146 143 142 143 148 152 150 153 165 174 182 192 204 211 215 220 228 227 209 181 198 211 232 265 278 289 295 299 303 303 303 305 307 309 314 317 317 313 314 314 313 315 316 314 312 312 312 312 312 311 308 304 296 290 288
171 171 172 172 171 172 173 173 173 171 170 168 165 161 157 151 146 139 132 125 117 111 111 113 117 124 127 127 129 131 133 136 141 146 153 160 166 179 196 206 212 221 227 228 229 229 231 230 221 221 240 253 265 275 281 286 292 298 301 302 304 310 313 317 322 326 325 321 318 319 319 319 321 320 317 318 317 314 313 313 311 308 305 302 300
174 173 174 175 175 174 176 178 176 174 172 170 169 167 162 156 152 148 144 140 134 127 124 124 125 127 128 125 126 134 144 154 165 175 184 192 200 210 218 224 234 243 243 237 233 231 232 235 237 244 255 262 267 274 280 285 292 299 300 304 311 317 319 324 328 327 327 324 317 318 322 322 322 322 318 317 316 313 312 314 313 310 309 307 305
175 172 172 175 177 176 177 178 178 176 176 174 173 171 166 159 156 152 150 149 146 141 139 139 138 140 142 137 131 141 162 180 191 198 208 214 217 222 225 227 235 242 239 232 230 230 232 235 239 245 252 257 261 268 276 282 288 293 297 305 317 320 321 327 327 317 318 319 314 315 320 320 322 324 320 314 313 310 308 310 312 310 309 308 307
175 173 173 175 177 177 177 178 178 179 178 177 175 172 167 163 161 158 155 155 155 152 151 152 152 154 157 154 147 154 178 197 202 203 208 210 210 216 221 222 226 230 228 225 226 227 228 231 234 239 245 250 255 261 268 275 281 289 298 306 316 322 322 322 317 311 312 313 309 310 314 317 320 323 321 315 311 308 308 310 310 309 307 304 301
174 174 175 175 177 177 177 176 178 178 178 177 176 174 170 168 167 165 163 162 163 163 163 164 165 167 170 170 170 176 190 202 200 198 203 204 205 208 209 208 211 215 218 220 222 222 225 229 231 233 237 243 249 253 260 269 277 285 295 303 310 317 319 318 316 315 314 312 309 311 315 317 320 322 321 318 311 306 306 309 309 307 305 302 298
171 172 173 173 174 175 175 175 175 175 175 174 174 175 174 172 171 171 170 170 171 172 172 173 177 180 181 183 188 194 202 208 209 211 212 206 200 199 197 197 201 203 207 212 215 219 224 227 230 233 235 239 245 249 254 262 270 277 285 292 298 305 309 311 315 318 317 314 316 319 320 321 321 322 321 319 314 309 310 312 310 304 300 300 300
168 167 168 169 170 171 171 171 171 171 172 174 174 176 179 178 177 177 177 177 177 178 179 180 182 185 187 191 195 201 207 212 215 215 210 201 197 196 196 197 199 200 203 208 212 218 224 228 232 236 239 241 247 253 257 262 266 270 276 281 286 292 298 303 308 313 314 314 317 321 322 322 324 323 322 320 317 315 313 313 312 305 297 297 298
166 164 165 167 168 167 166 167 168 169 172 174 176 178 181 182 181 181 181 181 181 181 181 182 184 186 189 193 199 205 210 214 213 209 204 202 201 201 202 203 202 204 208 211 214 220 225 230 234 239 243 247 252 257 260 263 264 267 271 276 279 283 288 292 297 302 306 309 314 318 319 320 321 320 318 319 320 318 313 311 313 310 302 298 297
167 166 164 165 167 167 166 166 168 169 171 173 175 177 179 179 179 180 181 182 182 180 179 180 183 186 187 190 199 206 207 206 204 203 203 205 207 209 212 214 216 217 219 221 225 229 233 238 242 245 248 252 255 258 261 263 266 268 271 274 277 279 282 285 289 293 297 299 304 310 314 316 316 313 311 314 317 315 312 311 312 311 306 301 302
168 166 164 164 166 167 167 167 167 168 170 171 172 173 174 174 175 177 179 180 180 181 180 180 182 182 181 183 194 201 199 197 201 205 208 212 215 218 223 226 229 233 235 237 240 243 246 250 253 255 257 258 259 261 263 264 267 269 272 274 277 278 280 282 284 286 288 291 296 302 306 309 310 308 308 311 313 312 310 309 310 309 305 302 303
167 165 164 163 163 164 165 165 165 165 166 166 165 166 169 171 173 175 178 179 180 182 184 185 186 186 186 190 199 205 205 207 211 213 216 221 225 229 233 238 242 246 249 252 254 255 257 259 260 261 262 262 262 264 266 266 268 270 272 274 275 277 279 280 280 280 281 284 289 294 297 301 304 304 304 306 308 309 309 308 308 308 306 303 302
167 166 163 161 160 160 160 161 162 162 162 162 163 164 168 172 175 177 179 181 182 184 187 190 193 195 197 202 209 214 218 220 221 222 226 230 234 238 244 249 252 255 257 260 261 262 263 263 264 264 264 265 265 266 267 268 269 269 270 272 273 276 278 278 277 276 277 279 283 287 290 293 296 298 300 301 303 304 304 303 303 304 303 301 299
167 166 163 160 159 158 157 158 160 161 162 164 167 168 170 174 178 180 182 185 188 189 191 194 199 203 208 213 217 222 225 227 229 231 234 237 240 246 251 255 259 261 263 264 265 265 266 266 267 268 268 268 267 266 267 268 269 269 269 271 272 274 276 276 273 273 274 275 277 280 283 287 290 292 294 296 297 297 298 299 300 301 300 299 297
164 162 161 160 158 157 156 157 159 161 164 168 172 175 176 177 180 183 187 190 193 195 197 200 203 208 214 218 223 227 231 234 236 239 241 244 248 253 256 259 261 263 265 265 266 267 269 269 269 270 270 269 268 267 267 267 268 268 269 270 271 273 274 273 271 272 273 273 274 276 278 282 285 288 290 291 291 291 292 295 297 298 298 297 296
159 157 157 157 158 159 159 160 163 167 170 172 175 179 181 182 185 189 192 195 197 200 203 206 210 215 221 226 230 233 237 240 243 246 248 252 256 258 259 261 263 265 265 266 267 269 271 271 271 271 270 269 269 268 267 267 267 268 269 271 272 273 271 269 268 269 270 270 271 272 273 275 278 281 284 285 286 286 287 289 291 293 295 295 295
156 156 156 157 159 162 164 166 169 172 175 177 180 183 184 188 192 195 198 201 204 206 211 215 219 224 229 233 236 240 243 247 250 253 257 260 262 263 264 266 267 267 267 268 269 270 271 271 271 270 269 269 268 268 268 268 269 270 271 272 272 271 268 266 266 266 266 266 267 268 269 271 273 275 276 279 279 279 281 284 287 290 291 293 295
154 155 157 158 161 164 166 168 172 175 179 182 186 188 190 195 199 203 207 211 214 218 222 226 229 233 237 239 242 246 250 254 257 261 264 266 267 269 269 270 270 270 270 271 270 270 270 270 269 268 268 267 267 267 268 269 270 272 272 271 269 267 265 264 262 261 260 261 263 263 263 264 266 267 268 270 271 271 274 279 283 287 290 292 295
153 155 158 160 162 165 168 170 175 180 184 188 192 196 201 205 209 213 218 223 227 231 234 236 238 241 244 247 251 254 258 261 265 267 269 270 272 273 273 273 272 272 272 271 271 270 269 269 267 266 265 265 266 267 268 270 271 271 270 268 265 263 263 262 261 259 257 257 259 260 259 259 260 260 259 260 262 265 270 275 278 281 285 288 289